Spokane, WA

1:53 PM PST on November 18, 2017 (GMT -0800)
Spokane International

Weather History for KGEG - January, 2014

Change the Weather History Date:

Saturday, January 11, 2014

  Actual Average Record
Temperature  
Mean Temperature 41 °F 29 °F  
Max Temperature 47 °F 34 °F 51 °F (1983)
Min Temperature 35 °F 24 °F -12 °F (1909)
Degree Days  
Heating Degree Days 24 36  
Month to date heating degree days 373 406  
Since 1 July heating degree days 3241 3240  
Cooling Degree Days 0 0  
Month to date cooling degree days 0 0  
Year to date cooling degree days 0 0  
Moisture  
Dew Point 33 °F    
Average Humidity 71    
Maximum Humidity 85    
Minimum Humidity 57    
Precipitation  
Precipitation 0.07 in 0.07 in 0.72 in (1913)
Month to date precipitation 0.59 0.71  
Year to date precipitation 0.59 0.71  
Snow  
Snow 0.00 in 0.40 in 6.80 in (1935)
Month to date snowfall 2.5 5.1  
Since 1 July snowfall 9.3 27.2  
Snow Depth 0.00 in    
Sea Level Pressure  
Sea Level Pressure 29.48 in    
Wind  
Wind Speed 27 mph (SSW)    
Max Wind Speed 44 mph    
Max Gust Speed 56 mph    
Visibility 10 miles    
Events Rain    
T = Trace of Precipitation, MM = Missing Value Source: NWS Daily Summary

Daily Weather History Graph

Daily Weather History Graph

Search for Another Location

Airport or City:

Trip Planner

Search our weather history database for the weather conditions in past years. The results will help you decide how hot, cold, wet, or windy it might be!

Date:

Astronomy

Jan. 11, 2014 Rise Set
Actual Time 7:35 AM PST 4:20 PM PST
Civil Twilight 7:00 AM PST 4:55 PM PST
Nautical Twilight 6:22 AM PST 5:34 PM PST
Astronomical Twilight 5:45 AM PST 6:11 PM PST
Moon 1:11 PM PST (1/11) 3:41 AM PST (1/11)
Length of Visible Light 9h 55m
Length of Day
8h 44m
Waxing Gibbous, 84% of the Moon is Illuminated
Jan 11
Waxing Gibbous
Jan 15
Full
Jan 23
Last Quarter
Jan 30
New
Feb 6
First Quarter

Hourly Weather History & Observations

Time (PST) Temp. Windchill Dew Point Humidity Pressure Visibility Wind Dir Wind Speed Gust Speed Precip Events Conditions
12:53 AM 39.0 °F 30.3 °F 35.1 °F 86% 29.73 in 10.0 mi SSE 16.1 mph 24.2 mph 0.02 in Rain Light Rain
1:53 AM 39.9 °F 32.1 °F 36.0 °F 86% 29.68 in 10.0 mi South 13.8 mph 27.6 mph 0.01 in   Overcast
2:53 AM 39.9 °F 30.5 °F 36.0 °F 86% 29.64 in 10.0 mi SSE 19.6 mph 24.2 mph N/A   Overcast
3:53 AM 39.9 °F 30.8 °F 36.0 °F 86% 29.58 in 10.0 mi SSE 18.4 mph 26.5 mph 0.00 in Rain Light Rain
4:53 AM 41.0 °F 32.8 °F 36.0 °F 82% 29.54 in 10.0 mi South 16.1 mph 20.7 mph 0.01 in Rain Light Rain
5:53 AM 43.0 °F 34.8 °F 36.0 °F 76% 29.46 in 10.0 mi South 18.4 mph 31.1 mph 0.00 in   Overcast
6:53 AM 42.1 °F 33.9 °F 36.0 °F 79% 29.45 in 10.0 mi South 17.3 mph 25.3 mph 0.01 in Rain Light Rain
7:53 AM 43.0 °F 35.4 °F 37.0 °F 80% 29.41 in 10.0 mi South 16.1 mph 28.8 mph 0.02 in Rain Light Rain
8:53 AM 46.9 °F - 37.0 °F 68% 29.42 in 10.0 mi SW 34.5 mph 42.6 mph 0.00 in   Overcast
9:53 AM 45.0 °F 34.7 °F 36.0 °F 71% 29.45 in 10.0 mi SW 33.4 mph 46.0 mph N/A   Mostly Cloudy
10:53 AM 43.0 °F 32.4 °F 34.0 °F 71% 29.47 in 10.0 mi SW 31.1 mph 39.1 mph N/A   Scattered Clouds
11:53 AM 44.1 °F 34.0 °F 32.0 °F 63% 29.46 in 10.0 mi SW 29.9 mph 39.1 mph N/A   Scattered Clouds
12:53 PM 44.1 °F 34.0 °F 30.9 °F 60% 29.45 in 10.0 mi SW 29.9 mph 43.7 mph N/A   Scattered Clouds
1:53 PM 44.1 °F 33.8 °F 30.9 °F 60% 29.45 in 10.0 mi SW 31.1 mph 41.4 mph N/A   Mostly Cloudy
2:53 PM 43.0 °F 33.1 °F 30.0 °F 60% 29.45 in 10.0 mi SSW 26.5 mph 44.9 mph N/A   Mostly Cloudy
3:53 PM 42.1 °F 31.0 °F 28.9 °F 60% 29.42 in 9.0 mi SSW 32.2 mph 47.2 mph N/A   Mostly Cloudy
4:53 PM 41.0 °F 29.5 °F 28.9 °F 62% 29.42 in 6.0 mi SSW 32.2 mph 44.9 mph N/A   Widespread Dust
5:53 PM 39.9 °F 27.1 °F 30.0 °F 68% 29.42 in 10.0 mi SW 38.0 mph 51.8 mph N/A   Mostly Cloudy
6:13 PM 39.2 °F 27.8 °F 30.2 °F 70% 29.40 in 10.0 mi SSW 27.6 mph 40.3 mph N/A   Overcast
6:53 PM 37.9 °F 25.5 °F 32.0 °F 79% 29.43 in 10.0 mi SSW 31.1 mph 40.3 mph N/A   Overcast
7:53 PM 37.0 °F 24.1 °F 32.0 °F 82% 29.44 in 10.0 mi SW 32.2 mph 44.9 mph N/A   Overcast
8:14 PM 37.4 °F 25.0 °F 32.0 °F 81% 29.42 in 10.0 mi SW 29.9 mph 42.6 mph N/A   Overcast
8:53 PM 37.0 °F 24.3 °F 32.0 °F 82% 29.45 in 10.0 mi SW 31.1 mph 40.3 mph N/A   Overcast
9:53 PM 36.0 °F 23.5 °F 30.9 °F 82% 29.46 in 10.0 mi SW 27.6 mph 40.3 mph N/A   Overcast
10:20 PM 35.6 °F 22.3 °F 30.2 °F 81% 29.44 in 10.0 mi SW 31.1 mph 41.4 mph N/A   Overcast
10:53 PM 36.0 °F 23.0 °F 30.9 °F 82% 29.48 in 10.0 mi SW 29.9 mph 44.9 mph N/A   Overcast
11:53 PM 35.1 °F 21.2 °F 30.9 °F 85% 29.49 in 10.0 mi SW 33.4 mph 38.0 mph N/A   Mostly Cloudy